Time,TemperatureF,DewpointF,PressureIn,WindDirection,WindDirectionDegrees,WindSpeedMPH,WindSpeedGustMPH,Humidity,HourlyPrecipIn,Conditions,Clouds,dailyrainin,SoftwareType,DateUTC
2013-04-02 00:00:00,68.6,61.5,29.96,West,270,0.0,0.0,78,0.00,,,0.00,Wunderground v.1.15,2013-04-02 04:00:00,
2013-04-02 00:01:00,68.6,61.5,29.96,West,270,0.0,0.0,78,0.00,,,0.00,Wunderground v.1.15,2013-04-02 04:01:00,
2013-04-02 00:03:00,68.4,61.6,29.96,West,270,0.0,0.0,79,0.00,,,0.00,Wunderground v.1.15,2013-04-02 04:03:00,
2013-04-02 00:04:00,68.4,61.6,29.96,West,270,0.0,0.0,79,0.00,,,0.00,Wunderground v.1.15,2013-04-02 04:04:00,
2013-04-02 00:10:00,68.1,61.3,29.96,West,270,0.0,0.0,79,0.00,,,0.00,Wunderground v.1.15,2013-04-02 04:10:00,
2013-04-02 00:16:00,67.8,61.0,29.96,West,270,0.0,0.0,79,0.00,,,0.00,Wunderground v.1.15,2013-04-02 04:16:00,
2013-04-02 00:21:00,67.4,61.0,29.96,West,270,0.0,0.0,80,0.00,,,0.00,Wunderground v.1.15,2013-04-02 04:21:00,
2013-04-02 00:27:00,67.1,61.1,29.96,West,270,0.0,0.0,81,0.00,,,0.00,Wunderground v.1.15,2013-04-02 04:27:00,
2013-04-02 00:33:00,66.9,60.9,29.96,West,270,0.0,0.0,81,0.00,,,0.00,Wunderground v.1.15,2013-04-02 04:33:00,
2013-04-02 00:39:00,66.6,60.9,29.96,West,270,0.0,0.0,82,0.00,,,0.00,Wunderground v.1.15,2013-04-02 04:39:00,
2013-04-02 00:44:00,66.4,61.1,29.95,West,270,0.0,0.0,83,0.00,,,0.00,Wunderground v.1.15,2013-04-02 04:44:00,
2013-04-02 00:49:00,66.3,61.0,29.95,West,270,0.0,0.0,83,0.00,,,0.00,Wunderground v.1.15,2013-04-02 04:49:00,
2013-04-02 00:55:00,66.1,61.1,29.95,West,270,0.0,0.0,84,0.00,,,0.00,Wunderground v.1.15,2013-04-02 04:55:00,
2013-04-02 01:01:00,66.0,61.4,29.95,West,270,0.0,0.0,85,0.00,,,0.00,Wunderground v.1.15,2013-04-02 05:01:00,
2013-04-02 01:06:00,65.8,61.2,29.95,West,270,0.0,0.0,85,0.00,,,0.00,Wunderground v.1.15,2013-04-02 05:06:00,
2013-04-02 01:11:00,65.6,61.3,29.95,West,270,0.0,0.0,86,0.00,,,0.00,Wunderground v.1.15,2013-04-02 05:11:00,
2013-04-02 01:17:00,65.5,61.5,29.96,West,270,0.0,0.0,87,0.00,,,0.00,Wunderground v.1.15,2013-04-02 05:17:00,
2013-04-02 01:23:00,65.3,61.3,29.96,West,270,0.0,0.0,87,0.00,,,0.00,Wunderground v.1.15,2013-04-02 05:23:00,
2013-04-02 01:29:00,65.3,61.3,29.95,West,270,0.0,0.0,87,0.00,,,0.00,Wunderground v.1.15,2013-04-02 05:29:00,
2013-04-02 01:34:00,65.2,61.2,29.95,West,270,0.0,0.0,87,0.00,,,0.00,Wunderground v.1.15,2013-04-02 05:34:00,
2013-04-02 01:40:00,65.2,61.6,29.95,West,270,0.0,0.0,88,0.00,,,0.00,Wunderground v.1.15,2013-04-02 05:40:00,
2013-04-02 01:46:00,65.0,61.4,29.95,West,270,0.0,0.0,88,0.00,,,0.00,Wunderground v.1.15,2013-04-02 05:46:00,
2013-04-02 01:52:00,64.8,61.5,29.95,West,270,0.0,0.0,89,0.00,,,0.00,Wunderground v.1.15,2013-04-02 05:52:00,
2013-04-02 01:58:00,64.7,61.4,29.95,West,270,0.0,0.0,89,0.00,,,0.00,Wunderground v.1.15,2013-04-02 05:58:00,
2013-04-02 02:03:00,64.7,61.4,29.95,West,270,0.0,0.0,89,0.00,,,0.00,Wunderground v.1.15,2013-04-02 06:03:00,
2013-04-02 02:08:00,64.7,61.7,29.95,West,270,0.0,0.0,90,0.00,,,0.00,Wunderground v.1.15,2013-04-02 06:08:00,
2013-04-02 02:13:00,64.5,61.5,29.95,West,270,0.0,0.0,90,0.00,,,0.00,Wunderground v.1.15,2013-04-02 06:13:00,
2013-04-02 02:18:00,64.5,61.8,29.95,West,270,0.0,0.0,91,0.00,,,0.00,Wunderground v.1.15,2013-04-02 06:18:00,
2013-04-02 02:23:00,64.5,61.8,29.95,West,270,0.0,0.0,91,0.00,,,0.00,Wunderground v.1.15,2013-04-02 06:23:00,
2013-04-02 02:28:00,64.3,61.6,29.95,West,268,0.0,0.0,91,0.00,,,0.00,Wunderground v.1.15,2013-04-02 06:28:00,
2013-04-02 02:33:00,64.3,61.6,29.95,West,268,0.0,0.0,91,0.00,,,0.00,Wunderground v.1.15,2013-04-02 06:33:00,
2013-04-02 02:39:00,64.2,61.8,29.95,West,268,0.0,0.0,92,0.00,,,0.00,Wunderground v.1.15,2013-04-02 06:39:00,
2013-04-02 02:44:00,64.2,61.8,29.95,West,268,0.0,0.0,92,0.00,,,0.00,Wunderground v.1.15,2013-04-02 06:44:00,
2013-04-02 02:49:00,64.0,61.6,29.95,West,268,0.0,0.0,92,0.00,,,0.00,Wunderground v.1.15,2013-04-02 06:49:00,
2013-04-02 02:54:00,64.0,61.6,29.95,West,268,0.0,0.0,92,0.00,,,0.00,Wunderground v.1.15,2013-04-02 06:54:00,
2013-04-02 02:59:00,63.9,61.5,29.95,West,268,0.0,0.0,92,0.00,,,0.00,Wunderground v.1.15,2013-04-02 06:59:00,
2013-04-02 03:04:00,63.9,61.5,29.95,West,268,0.0,0.0,92,0.00,,,0.00,Wunderground v.1.15,2013-04-02 07:04:00,
2013-04-02 03:09:00,63.7,61.6,29.95,West,268,0.0,0.0,93,0.00,,,0.00,Wunderground v.1.15,2013-04-02 07:09:00,
2013-04-02 03:14:00,63.7,61.6,29.95,West,268,0.0,0.0,93,0.00,,,0.00,Wunderground v.1.15,2013-04-02 07:14:00,
2013-04-02 03:19:00,63.7,61.6,29.95,West,268,0.0,0.0,93,0.00,,,0.00,Wunderground v.1.15,2013-04-02 07:19:00,
2013-04-02 03:24:00,63.7,61.9,29.95,West,268,0.0,0.0,94,0.00,,,0.00,Wunderground v.1.15,2013-04-02 07:24:00,
2013-04-02 03:29:00,63.5,61.7,29.95,West,268,0.0,0.0,94,0.00,,,0.00,Wunderground v.1.15,2013-04-02 07:29:00,
2013-04-02 03:34:00,63.5,61.7,29.95,West,268,0.0,0.0,94,0.00,,,0.00,Wunderground v.1.15,2013-04-02 07:34:00,
2013-04-02 03:39:00,63.4,61.6,29.95,West,268,0.0,0.0,94,0.00,,,0.00,Wunderground v.1.15,2013-04-02 07:39:00,
2013-04-02 03:44:00,63.4,61.6,29.95,West,268,0.0,0.0,94,0.00,,,0.00,Wunderground v.1.15,2013-04-02 07:44:00,
2013-04-02 03:49:00,63.2,61.4,29.95,West,268,0.0,0.0,94,0.00,,,0.00,Wunderground v.1.15,2013-04-02 07:49:00,
2013-04-02 03:54:00,63.1,61.3,29.95,West,268,0.0,0.0,94,0.00,,,0.00,Wunderground v.1.15,2013-04-02 07:54:00,
2013-04-02 03:59:00,63.1,61.6,29.94,West,268,0.0,0.0,95,0.00,,,0.00,Wunderground v.1.15,2013-04-02 07:59:00,
2013-04-02 04:05:00,63.1,61.6,29.94,West,268,0.0,0.0,95,0.00,,,0.00,Wunderground v.1.15,2013-04-02 08:05:00,
2013-04-02 04:10:00,63.1,61.6,29.94,West,268,0.0,0.0,95,0.00,,,0.00,Wunderground v.1.15,2013-04-02 08:10:00,
2013-04-02 04:15:00,63.1,61.6,29.95,West,268,0.0,0.0,95,0.00,,,0.00,Wunderground v.1.15,2013-04-02 08:15:00,
2013-04-02 04:20:00,63.1,61.6,29.95,West,269,0.0,0.0,95,0.00,,,0.00,Wunderground v.1.15,2013-04-02 08:20:00,
2013-04-02 04:25:00,62.9,61.7,29.95,West,278,0.0,0.0,96,0.00,,,0.00,Wunderground v.1.15,2013-04-02 08:25:00,
2013-04-02 04:30:00,63.1,61.9,29.94,WNW,290,1.0,1.0,96,0.00,,,0.00,Wunderground v.1.15,2013-04-02 08:30:00,
2013-04-02 04:35:00,63.1,61.9,29.94,WNW,292,1.0,4.0,96,0.00,,,0.00,Wunderground v.1.15,2013-04-02 08:35:00,
2013-04-02 04:40:00,63.1,61.9,29.94,West,270,0.0,1.0,96,0.00,,,0.00,Wunderground v.1.15,2013-04-02 08:40:00,
2013-04-02 04:45:00,63.2,62.0,29.94,West,276,2.0,5.0,96,0.00,,,0.00,Wunderground v.1.15,2013-04-02 08:45:00,
2013-04-02 04:50:00,63.4,62.2,29.94,WNW,295,2.0,2.0,96,0.00,,,0.00,Wunderground v.1.15,2013-04-02 08:50:00,
2013-04-02 04:55:00,63.4,62.2,29.94,WNW,296,1.0,4.0,96,0.00,,,0.00,Wunderground v.1.15,2013-04-02 08:55:00,
2013-04-02 05:00:00,63.2,62.0,29.95,WNW,296,0.0,0.0,96,0.00,,,0.00,Wunderground v.1.15,2013-04-02 09:00:00,
2013-04-02 05:05:00,63.2,62.0,29.95,WNW,296,0.0,1.0,96,0.00,,,0.00,Wunderground v.1.15,2013-04-02 09:05:00,
2013-04-02 05:10:00,63.1,61.9,29.95,WNW,296,0.0,0.0,96,0.00,,,0.00,Wunderground v.1.15,2013-04-02 09:10:00,
2013-04-02 05:15:00,63.1,61.9,29.95,WNW,296,0.0,0.0,96,0.00,,,0.00,Wunderground v.1.15,2013-04-02 09:15:00,
2013-04-02 05:20:00,63.1,61.9,29.95,WNW,296,0.0,0.0,96,0.00,,,0.00,Wunderground v.1.15,2013-04-02 09:20:00,
2013-04-02 05:25:00,62.9,62.0,29.95,WNW,296,0.0,0.0,97,0.00,,,0.00,Wunderground v.1.15,2013-04-02 09:25:00,
2013-04-02 05:30:00,62.9,62.0,29.95,WNW,296,0.0,0.0,97,0.00,,,0.00,Wunderground v.1.15,2013-04-02 09:30:00,
2013-04-02 05:35:00,62.7,61.8,29.95,WNW,296,0.0,2.0,97,0.00,,,0.00,Wunderground v.1.15,2013-04-02 09:35:00,
2013-04-02 05:40:00,62.7,61.8,29.95,WNW,296,0.0,0.0,97,0.00,,,0.00,Wunderground v.1.15,2013-04-02 09:40:00,
2013-04-02 05:45:00,62.7,61.8,29.95,WNW,288,0.0,4.0,97,0.00,,,0.00,Wunderground v.1.15,2013-04-02 09:45:00,
2013-04-02 05:50:00,62.7,61.8,29.95,WNW,288,0.0,0.0,97,0.00,,,0.00,Wunderground v.1.15,2013-04-02 09:50:00,
2013-04-02 05:55:00,62.7,61.8,29.95,WNW,290,0.0,4.0,97,0.00,,,0.00,Wunderground v.1.15,2013-04-02 09:55:00,
2013-04-02 06:00:00,62.7,61.8,29.95,WNW,290,0.0,0.0,97,0.00,,,0.00,Wunderground v.1.15,2013-04-02 10:00:00,
2013-04-02 06:05:00,62.6,61.7,29.95,WNW,290,0.0,3.0,97,0.00,,,0.00,Wunderground v.1.15,2013-04-02 10:05:00,
2013-04-02 06:10:00,62.6,61.7,29.95,WNW,293,0.0,2.0,97,0.00,,,0.00,Wunderground v.1.15,2013-04-02 10:10:00,
2013-04-02 06:15:00,62.7,61.8,29.96,WNW,293,0.0,2.0,97,0.00,,,0.00,Wunderground v.1.15,2013-04-02 10:15:00,
2013-04-02 06:20:00,62.7,61.8,29.96,WNW,293,1.0,3.0,97,0.00,,,0.00,Wunderground v.1.15,2013-04-02 10:20:00,
2013-04-02 06:25:00,62.7,61.8,29.96,WNW,293,0.0,3.0,97,0.00,,,0.00,Wunderground v.1.15,2013-04-02 10:25:00,
2013-04-02 06:30:00,62.7,62.1,29.96,WNW,293,0.0,0.0,98,0.00,,,0.00,Wunderground v.1.15,2013-04-02 10:30:00,
2013-04-02 06:35:00,62.7,61.8,29.96,WNW,294,0.0,3.0,97,0.00,,,0.00,Wunderground v.1.15,2013-04-02 10:35:00,
2013-04-02 06:40:00,62.6,61.7,29.96,WNW,294,0.0,0.0,97,0.00,,,0.00,Wunderground v.1.15,2013-04-02 10:40:00,
2013-04-02 06:45:00,62.6,62.0,29.96,WNW,294,0.0,2.0,98,0.00,,,0.00,Wunderground v.1.15,2013-04-02 10:45:00,
2013-04-02 06:51:00,62.6,62.0,29.96,WNW,301,0.0,0.0,98,0.00,,,0.00,Wunderground v.1.15,2013-04-02 10:51:00,
2013-04-02 06:56:00,62.6,62.0,29.96,NW,304,0.0,2.0,98,0.00,,,0.00,Wunderground v.1.15,2013-04-02 10:56:00,
2013-04-02 07:01:00,62.6,62.0,29.97,WNW,302,4.0,4.0,98,0.00,,,0.00,Wunderground v.1.15,2013-04-02 11:01:00,
2013-04-02 07:06:00,62.7,62.1,29.97,WNW,288,0.0,5.0,98,0.00,,,0.00,Wunderground v.1.15,2013-04-02 11:06:00,
2013-04-02 07:11:00,62.7,62.1,29.97,WNW,295,1.0,4.0,98,0.00,,,0.00,Wunderground v.1.15,2013-04-02 11:11:00,
2013-04-02 07:16:00,62.7,62.1,29.97,WNW,295,1.0,4.0,98,0.00,,,0.00,Wunderground v.1.15,2013-04-02 11:16:00,
2013-04-02 07:21:00,62.7,62.1,29.97,WNW,295,0.0,0.0,98,0.00,,,0.00,Wunderground v.1.15,2013-04-02 11:21:00,
2013-04-02 07:26:00,62.7,62.1,29.97,WNW,300,2.0,3.0,98,0.00,,,0.00,Wunderground v.1.15,2013-04-02 11:26:00,
2013-04-02 07:31:00,62.7,62.1,29.98,NW,304,0.0,1.0,98,0.00,,,0.00,Wunderground v.1.15,2013-04-02 11:31:00,
2013-04-02 07:36:00,62.6,62.0,29.98,NW,304,0.0,1.0,98,0.00,,,0.00,Wunderground v.1.15,2013-04-02 11:36:00,
2013-04-02 07:41:00,62.6,62.0,29.98,NW,304,0.0,0.0,98,0.00,,,0.00,Wunderground v.1.15,2013-04-02 11:41:00,
2013-04-02 07:47:00,62.7,62.1,29.99,NW,304,0.0,0.0,98,0.00,,,0.00,Wunderground v.1.15,2013-04-02 11:47:00,
2013-04-02 07:52:00,62.7,62.1,29.99,NW,309,0.0,0.0,98,0.00,,,0.00,Wunderground v.1.15,2013-04-02 11:52:00,
2013-04-02 07:57:00,62.9,62.3,29.99,WNW,298,2.0,4.0,98,0.00,,,0.00,Wunderground v.1.15,2013-04-02 11:57:00,
2013-04-02 08:02:00,63.1,62.5,29.99,WNW,300,0.0,1.0,98,0.00,,,0.00,Wunderground v.1.15,2013-04-02 12:02:00,
2013-04-02 08:07:00,63.1,62.5,29.99,WNW,300,0.0,2.0,98,0.00,,,0.00,Wunderground v.1.15,2013-04-02 12:07:00,
2013-04-02 08:12:00,63.2,62.6,29.99,WNW,293,1.0,4.0,98,0.00,,,0.00,Wunderground v.1.15,2013-04-02 12:12:00,
2013-04-02 08:17:00,63.4,62.8,29.99,WNW,293,0.0,4.0,98,0.00,,,0.00,Wunderground v.1.15,2013-04-02 12:17:00,
2013-04-02 08:22:00,63.5,62.9,29.99,NW,324,0.0,5.0,98,0.00,,,0.00,Wunderground v.1.15,2013-04-02 12:22:00,
2013-04-02 08:27:00,63.7,63.1,29.99,NW,306,3.0,5.0,98,0.00,,,0.00,Wunderground v.1.15,2013-04-02 12:27:00,
2013-04-02 08:32:00,63.9,63.3,30.00,WNW,289,0.0,5.0,98,0.00,,,0.00,Wunderground v.1.15,2013-04-02 12:32:00,
2013-04-02 08:37:00,64.0,63.1,30.00,NW,323,0.0,6.0,97,0.00,,,0.00,Wunderground v.1.15,2013-04-02 12:37:00,
2013-04-02 08:42:00,64.3,63.4,30.00,NNW,328,0.0,1.0,97,0.00,,,0.00,Wunderground v.1.15,2013-04-02 12:42:00,
2013-04-02 08:47:00,64.5,63.3,30.01,WNW,301,0.0,1.0,96,0.00,,,0.00,Wunderground v.1.15,2013-04-02 12:47:00,
2013-04-02 08:52:00,65.0,63.5,30.01,NNW,333,2.0,6.0,95,0.00,,,0.00,Wunderground v.1.15,2013-04-02 12:52:00,
2013-04-02 08:57:00,65.3,63.5,30.01,NW,325,0.0,6.0,94,0.00,,,0.00,Wunderground v.1.15,2013-04-02 12:57:00,
2013-04-02 09:02:00,65.6,63.2,30.01,NW,304,0.0,5.0,92,0.00,,,0.00,Wunderground v.1.15,2013-04-02 13:02:00,
2013-04-02 09:07:00,66.0,62.7,30.01,WNW,296,1.0,5.0,89,0.00,,,0.00,Wunderground v.1.15,2013-04-02 13:07:00,
2013-04-02 09:12:00,66.3,62.6,30.01,NNW,339,0.0,2.0,88,0.00,,,0.00,Wunderground v.1.15,2013-04-02 13:12:00,
2013-04-02 09:17:00,66.8,62.5,30.01,WNW,296,3.0,4.0,86,0.00,,,0.00,Wunderground v.1.15,2013-04-02 13:17:00,
2013-04-02 09:22:00,67.1,62.4,30.01,WNW,296,0.0,1.0,85,0.00,,,0.00,Wunderground v.1.15,2013-04-02 13:22:00,
2013-04-02 09:27:00,67.6,62.3,30.01,WNW,303,0.0,1.0,83,0.00,,,0.00,Wunderground v.1.15,2013-04-02 13:27:00,
2013-04-02 09:32:00,68.1,62.4,30.02,WNW,290,1.0,4.0,82,0.00,,,0.00,Wunderground v.1.15,2013-04-02 13:32:00,
2013-04-02 09:37:00,68.4,62.0,30.02,North,356,2.0,4.0,80,0.00,,,0.00,Wunderground v.1.15,2013-04-02 13:37:00,
2013-04-02 09:42:00,68.9,62.1,30.02,WNW,285,0.0,1.0,79,0.00,,,0.00,Wunderground v.1.15,2013-04-02 13:42:00,
2013-04-02 09:47:00,69.3,62.1,30.02,WNW,293,0.0,3.0,78,0.00,,,0.00,Wunderground v.1.15,2013-04-02 13:47:00,
2013-04-02 09:52:00,69.8,62.3,30.02,NNE,15,5.0,6.0,77,0.00,,,0.00,Wunderground v.1.15,2013-04-02 13:52:00,
2013-04-02 09:57:00,70.3,61.2,30.02,NE,38,0.0,6.0,73,0.00,,,0.00,Wunderground v.1.15,2013-04-02 13:57:00,
2013-04-02 10:02:00,70.8,61.7,30.03,NNW,345,0.0,1.0,73,0.00,,,0.00,Wunderground v.1.15,2013-04-02 14:02:00,
2013-04-02 10:07:00,71.3,61.0,30.03,North,358,5.0,5.0,70,0.00,,,0.00,Wunderground v.1.15,2013-04-02 14:07:00,
2013-04-02 10:12:00,71.8,61.1,30.03,NW,316,2.0,6.0,69,0.00,,,0.00,Wunderground v.1.15,2013-04-02 14:12:00,
2013-04-02 10:17:00,72.3,60.3,30.03,NNW,335,3.0,6.0,66,0.00,,,0.00,Wunderground v.1.15,2013-04-02 14:17:00,
2013-04-02 10:22:00,72.7,59.8,30.03,NE,35,0.0,1.0,64,0.00,,,0.00,Wunderground v.1.15,2013-04-02 14:22:00,
2013-04-02 10:27:00,73.0,60.1,30.03,NNW,332,0.0,6.0,64,0.00,,,0.00,Wunderground v.1.15,2013-04-02 14:27:00,
2013-04-02 10:32:00,73.5,58.8,30.03,NNE,23,0.0,7.0,60,0.00,,,0.00,Wunderground v.1.15,2013-04-02 14:32:00,
2013-04-02 10:38:00,73.9,58.2,30.03,ENE,70,2.0,7.0,58,0.00,,,0.00,Wunderground v.1.15,2013-04-02 14:38:00,
2013-04-02 10:43:00,74.2,58.0,30.03,NNE,14,3.0,9.0,57,0.00,,,0.00,Wunderground v.1.15,2013-04-02 14:43:00,
2013-04-02 10:48:00,74.0,57.8,30.03,North,1,0.0,9.0,57,0.00,,,0.00,Wunderground v.1.15,2013-04-02 14:48:00,
2013-04-02 10:53:00,74.0,57.3,30.03,NNW,342,7.0,7.0,56,0.00,,,0.00,Wunderground v.1.15,2013-04-02 14:53:00,
2013-04-02 10:58:00,74.6,57.9,30.03,NNW,347,1.0,7.0,56,0.00,,,0.00,Wunderground v.1.15,2013-04-02 14:58:00,
2013-04-02 11:03:00,74.9,57.6,30.03,NNW,347,0.0,7.0,55,0.00,,,0.00,Wunderground v.1.15,2013-04-02 15:03:00,
2013-04-02 11:08:00,75.3,58.0,30.03,NW,324,0.0,9.0,55,0.00,,,0.00,Wunderground v.1.15,2013-04-02 15:08:00,
2013-04-02 11:13:00,76.0,59.2,30.03,North,8,0.0,7.0,56,0.00,,,0.00,Wunderground v.1.15,2013-04-02 15:13:00,
2013-04-02 11:18:00,75.8,57.4,30.04,North,358,3.0,7.0,53,0.00,,,0.00,Wunderground v.1.15,2013-04-02 15:18:00,
2013-04-02 11:23:00,76.0,58.7,30.04,North,2,1.0,6.0,55,0.00,,,0.00,Wunderground v.1.15,2013-04-02 15:23:00,
2013-04-02 11:29:00,76.1,58.8,30.03,NNE,23,3.0,10.0,55,0.00,,,0.00,Wunderground v.1.15,2013-04-02 15:29:00,
2013-04-02 11:34:00,76.3,58.4,30.03,North,359,4.0,10.0,54,0.00,,,0.00,Wunderground v.1.15,2013-04-02 15:34:00,
2013-04-02 11:39:00,76.5,57.6,30.03,North,349,3.0,12.0,52,0.00,,,0.00,Wunderground v.1.15,2013-04-02 15:39:00,
2013-04-02 11:44:00,76.7,58.8,30.03,NNE,25,2.0,5.0,54,0.00,,,0.00,Wunderground v.1.15,2013-04-02 15:44:00,
2013-04-02 11:49:00,76.8,58.4,30.03,North,352,6.0,6.0,53,0.00,,,0.00,Wunderground v.1.15,2013-04-02 15:49:00,
2013-04-02 11:54:00,77.0,60.6,30.03,North,11,1.0,8.0,57,0.00,,,0.00,Wunderground v.1.15,2013-04-02 15:54:00,
2013-04-02 11:59:00,76.8,60.4,30.03,NNE,18,0.0,8.0,57,0.00,,,0.00,Wunderground v.1.15,2013-04-02 15:59:00,
2013-04-02 12:04:00,77.2,60.8,30.03,NNE,15,6.0,7.0,57,0.00,,,0.00,Wunderground v.1.15,2013-04-02 16:04:00,
2013-04-02 12:09:00,77.7,60.8,30.03,NE,44,0.0,9.0,56,0.00,,,0.00,Wunderground v.1.15,2013-04-02 16:09:00,
2013-04-02 12:14:00,77.4,60.0,30.04,North,4,0.0,10.0,55,0.00,,,0.00,Wunderground v.1.15,2013-04-02 16:14:00,
2013-04-02 12:19:00,77.2,59.3,30.04,NE,39,0.0,10.0,54,0.00,,,0.00,Wunderground v.1.15,2013-04-02 16:19:00,
2013-04-02 12:24:00,77.4,61.0,30.04,North,1,2.0,7.0,57,0.00,,,0.00,Wunderground v.1.15,2013-04-02 16:24:00,
2013-04-02 12:29:00,77.9,60.4,30.03,North,356,1.0,7.0,55,0.00,,,0.00,Wunderground v.1.15,2013-04-02 16:29:00,
2013-04-02 12:34:00,78.3,60.3,30.03,North,11,0.0,5.0,54,0.00,,,0.00,Wunderground v.1.15,2013-04-02 16:34:00,
2013-04-02 12:40:00,78.3,60.8,30.03,NE,39,0.0,2.0,55,0.00,,,0.00,Wunderground v.1.15,2013-04-02 16:40:00,
2013-04-02 12:45:00,78.6,60.0,30.03,North,1,2.0,5.0,53,0.00,,,0.00,Wunderground v.1.15,2013-04-02 16:45:00,
2013-04-02 12:50:00,78.1,60.6,30.03,NNE,19,0.0,2.0,55,0.00,,,0.00,Wunderground v.1.15,2013-04-02 16:50:00,
2013-04-02 12:55:00,77.6,61.7,30.03,NE,40,0.0,5.0,58,0.00,,,0.00,Wunderground v.1.15,2013-04-02 16:55:00,
2013-04-02 13:00:00,77.7,61.3,30.03,ENE,77,0.0,1.0,57,0.00,,,0.00,Wunderground v.1.15,2013-04-02 17:00:00,
2013-04-02 13:05:00,77.7,61.7,30.03,East,89,0.0,6.0,58,0.00,,,0.00,Wunderground v.1.15,2013-04-02 17:05:00,
2013-04-02 13:10:00,77.7,61.7,30.03,NE,34,3.0,5.0,58,0.00,,,0.00,Wunderground v.1.15,2013-04-02 17:10:00,
2013-04-02 13:15:00,77.4,62.4,30.03,NNE,18,3.0,6.0,60,0.00,,,0.00,Wunderground v.1.15,2013-04-02 17:15:00,
2013-04-02 13:20:00,77.2,63.2,30.03,NE,43,0.0,2.0,62,0.00,,,0.00,Wunderground v.1.15,2013-04-02 17:20:00,
2013-04-02 13:25:00,77.2,62.7,30.03,North,359,0.0,6.0,61,0.00,,,0.00,Wunderground v.1.15,2013-04-02 17:25:00,
2013-04-02 13:30:00,76.8,62.8,30.03,NNE,23,0.0,2.0,62,0.00,,,0.00,Wunderground v.1.15,2013-04-02 17:30:00,
2013-04-02 13:35:00,76.8,63.2,30.03,North,6,4.0,10.0,63,0.00,,,0.00,Wunderground v.1.15,2013-04-02 17:35:00,
2013-04-02 13:40:00,77.2,63.2,30.03,NE,47,3.0,4.0,62,0.00,,,0.00,Wunderground v.1.15,2013-04-02 17:40:00,
2013-04-02 13:45:00,77.4,62.9,30.03,NE,44,5.0,9.0,61,0.00,,,0.00,Wunderground v.1.15,2013-04-02 17:45:00,
2013-04-02 13:50:00,77.6,63.5,30.03,ENE,78,2.0,4.0,62,0.00,,,0.00,Wunderground v.1.15,2013-04-02 17:50:00,
2013-04-02 13:55:00,78.1,63.6,30.03,North,359,4.0,12.0,61,0.00,,,0.00,Wunderground v.1.15,2013-04-02 17:55:00,
2013-04-02 14:00:00,78.3,64.2,30.03,ENE,65,6.0,6.0,62,0.00,,,0.00,Wunderground v.1.15,2013-04-02 18:00:00,
2013-04-02 14:06:00,78.5,64.4,30.03,NE,41,0.0,10.0,62,0.00,,,0.00,Wunderground v.1.15,2013-04-02 18:06:00,
2013-04-02 14:11:00,77.9,63.8,30.03,NNE,20,2.0,6.0,62,0.00,,,0.00,Wunderground v.1.15,2013-04-02 18:11:00,
2013-04-02 14:16:00,77.7,64.5,30.02,North,359,0.0,6.0,64,0.00,,,0.00,Wunderground v.1.15,2013-04-02 18:16:00,
2013-04-02 14:21:00,77.7,65.0,30.02,NNE,17,3.0,5.0,65,0.00,,,0.00,Wunderground v.1.15,2013-04-02 18:21:00,
2013-04-02 14:26:00,78.1,65.4,30.02,NE,43,3.0,6.0,65,0.00,,,0.00,Wunderground v.1.15,2013-04-02 18:26:00,
2013-04-02 14:31:00,78.6,65.4,30.02,NNE,23,4.0,4.0,64,0.00,,,0.00,Wunderground v.1.15,2013-04-02 18:31:00,
2013-04-02 14:36:00,78.3,65.1,30.02,NE,34,2.0,9.0,64,0.00,,,0.00,Wunderground v.1.15,2013-04-02 18:36:00,
2013-04-02 14:41:00,78.3,65.6,30.02,ENE,67,0.0,3.0,65,0.00,,,0.00,Wunderground v.1.15,2013-04-02 18:41:00,
2013-04-02 14:46:00,78.5,65.3,30.02,North,4,1.0,6.0,64,0.00,,,0.00,Wunderground v.1.15,2013-04-02 18:46:00,
2013-04-02 14:51:00,78.1,64.9,30.02,NNE,30,0.0,6.0,64,0.00,,,0.00,Wunderground v.1.15,2013-04-02 18:51:00,
2013-04-02 14:56:00,77.7,65.0,30.02,ESE,113,3.0,10.0,65,0.00,,,0.00,Wunderground v.1.15,2013-04-02 18:56:00,
2013-04-02 15:01:00,77.2,65.4,30.01,North,8,4.0,4.0,67,0.00,,,0.00,Wunderground v.1.15,2013-04-02 19:01:00,
2013-04-02 15:06:00,76.8,65.4,30.01,North,2,0.0,11.0,68,0.00,,,0.00,Wunderground v.1.15,2013-04-02 19:06:00,
2013-04-02 15:11:00,76.8,65.0,30.01,NE,48,0.0,9.0,67,0.00,,,0.00,Wunderground v.1.15,2013-04-02 19:11:00,
2013-04-02 15:16:00,77.2,65.4,30.00,ESE,103,3.0,9.0,67,0.00,,,0.00,Wunderground v.1.15,2013-04-02 19:16:00,
2013-04-02 15:22:00,77.7,65.4,30.00,NNE,18,0.0,4.0,66,0.00,,,0.00,Wunderground v.1.15,2013-04-02 19:22:00,
2013-04-02 15:27:00,77.9,65.2,30.00,NE,44,0.0,9.0,65,0.00,,,0.00,Wunderground v.1.15,2013-04-02 19:27:00,
2013-04-02 15:32:00,77.7,65.4,30.00,NE,34,3.0,5.0,66,0.00,,,0.00,Wunderground v.1.15,2013-04-02 19:32:00,
2013-04-02 15:37:00,77.4,65.6,30.00,NE,39,0.0,9.0,67,0.00,,,0.00,Wunderground v.1.15,2013-04-02 19:37:00,
2013-04-02 15:42:00,77.4,66.0,30.00,North,0,1.0,6.0,68,0.00,,,0.00,Wunderground v.1.15,2013-04-02 19:42:00,
2013-04-02 15:47:00,77.4,65.6,30.00,NNE,24,3.0,6.0,67,0.00,,,0.00,Wunderground v.1.15,2013-04-02 19:47:00,
2013-04-02 15:52:00,77.2,65.4,30.00,North,359,0.0,6.0,67,0.00,,,0.00,Wunderground v.1.15,2013-04-02 19:52:00,
2013-04-02 15:57:00,77.2,65.4,30.00,North,359,0.0,6.0,67,0.00,,,0.00,Wunderground v.1.15,2013-04-02 19:57:00,
2013-04-02 16:02:00,77.4,65.1,30.00,NNE,21,0.0,5.0,66,0.00,,,0.00,Wunderground v.1.15,2013-04-02 20:02:00,
2013-04-02 16:07:00,77.7,65.4,30.00,East,80,3.0,6.0,66,0.00,,,0.00,Wunderground v.1.15,2013-04-02 20:07:00,
2013-04-02 16:12:00,77.9,65.6,30.00,East,83,0.0,4.0,66,0.00,,,0.00,Wunderground v.1.15,2013-04-02 20:12:00,
2013-04-02 16:17:00,78.3,66.0,29.99,NNE,30,0.0,4.0,66,0.00,,,0.00,Wunderground v.1.15,2013-04-02 20:17:00,
2013-04-02 16:22:00,78.5,65.8,29.99,ENE,61,0.0,5.0,65,0.00,,,0.00,Wunderground v.1.15,2013-04-02 20:22:00,
2013-04-02 16:27:00,78.1,65.8,29.99,East,87,0.0,5.0,66,0.00,,,0.00,Wunderground v.1.15,2013-04-02 20:27:00,
2013-04-02 16:32:00,77.9,66.1,29.99,ENE,69,0.0,4.0,67,0.00,,,0.00,Wunderground v.1.15,2013-04-02 20:32:00,
2013-04-02 16:37:00,78.3,66.4,29.99,East,94,0.0,5.0,67,0.00,,,0.00,Wunderground v.1.15,2013-04-02 20:37:00,
2013-04-02 16:42:00,78.6,65.8,29.99,NE,41,0.0,6.0,65,0.00,,,0.00,Wunderground v.1.15,2013-04-02 20:42:00,
2013-04-02 16:47:00,78.5,66.2,29.99,ENE,70,0.0,6.0,66,0.00,,,0.00,Wunderground v.1.15,2013-04-02 20:47:00,
2013-04-02 16:52:00,78.6,65.8,29.99,NE,42,0.0,9.0,65,0.00,,,0.00,Wunderground v.1.15,2013-04-02 20:52:00,
2013-04-02 16:57:00,78.1,65.8,29.99,ENE,63,0.0,9.0,66,0.00,,,0.00,Wunderground v.1.15,2013-04-02 20:57:00,
2013-04-02 17:02:00,77.6,65.8,29.99,North,8,0.0,2.0,67,0.00,,,0.00,Wunderground v.1.15,2013-04-02 21:02:00,
2013-04-02 17:07:00,77.2,65.8,29.99,NE,44,0.0,8.0,68,0.00,,,0.00,Wunderground v.1.15,2013-04-02 21:07:00,
2013-04-02 17:12:00,76.8,65.4,29.99,NE,40,0.0,4.0,68,0.00,,,0.00,Wunderground v.1.15,2013-04-02 21:12:00,
2013-04-02 17:17:00,76.7,65.8,29.99,East,91,0.0,8.0,69,0.00,,,0.00,Wunderground v.1.15,2013-04-02 21:17:00,
2013-04-02 17:22:00,76.8,65.4,29.99,NE,47,7.0,9.0,68,0.00,,,0.00,Wunderground v.1.15,2013-04-02 21:22:00,
2013-04-02 17:27:00,77.0,66.0,29.99,East,93,0.0,9.0,69,0.00,,,0.00,Wunderground v.1.15,2013-04-02 21:27:00,
2013-04-02 17:32:00,77.2,65.4,29.99,ENE,66,0.0,5.0,67,0.00,,,0.00,Wunderground v.1.15,2013-04-02 21:32:00,
2013-04-02 17:38:00,77.2,66.2,29.99,NE,47,0.0,5.0,69,0.00,,,0.00,Wunderground v.1.15,2013-04-02 21:38:00,
2013-04-02 17:43:00,77.0,65.6,29.99,NE,35,0.0,4.0,68,0.00,,,0.00,Wunderground v.1.15,2013-04-02 21:43:00,
2013-04-02 17:48:00,76.7,66.2,30.00,NE,46,0.0,4.0,70,0.00,,,0.00,Wunderground v.1.15,2013-04-02 21:48:00,
2013-04-02 17:53:00,76.3,65.8,30.00,NNE,13,0.0,3.0,70,0.00,,,0.00,Wunderground v.1.15,2013-04-02 21:53:00,
2013-04-02 17:58:00,76.0,65.5,30.00,North,3,0.0,3.0,70,0.00,,,0.00,Wunderground v.1.15,2013-04-02 21:58:00,
2013-04-02 18:03:00,76.0,65.9,30.00,North,1,0.0,5.0,71,0.00,,,0.00,Wunderground v.1.15,2013-04-02 22:03:00,
2013-04-02 18:08:00,75.8,65.7,30.00,ESE,114,0.0,5.0,71,0.00,,,0.00,Wunderground v.1.15,2013-04-02 22:08:00,
2013-04-02 18:13:00,76.0,65.9,30.00,NW,314,0.0,2.0,71,0.00,,,0.00,Wunderground v.1.15,2013-04-02 22:13:00,
2013-04-02 18:18:00,75.8,65.7,30.00,NE,37,1.0,4.0,71,0.00,,,0.00,Wunderground v.1.15,2013-04-02 22:18:00,
2013-04-02 18:23:00,75.3,65.6,30.00,NE,41,0.0,4.0,72,0.00,,,0.00,Wunderground v.1.15,2013-04-02 22:23:00,
2013-04-02 18:28:00,74.9,65.7,30.00,North,2,0.0,4.0,73,0.00,,,0.00,Wunderground v.1.15,2013-04-02 22:28:00,
2013-04-02 18:33:00,74.7,65.5,30.00,North,359,1.0,5.0,73,0.00,,,0.00,Wunderground v.1.15,2013-04-02 22:33:00,
2013-04-02 18:38:00,74.4,65.2,30.00,NNE,23,0.0,5.0,73,0.00,,,0.00,Wunderground v.1.15,2013-04-02 22:38:00,
2013-04-02 18:43:00,74.2,65.4,30.00,NE,41,0.0,1.0,74,0.00,,,0.00,Wunderground v.1.15,2013-04-02 22:43:00,
2013-04-02 18:49:00,74.0,65.2,30.00,North,1,0.0,4.0,74,0.00,,,0.00,Wunderground v.1.15,2013-04-02 22:49:00,
2013-04-02 18:54:00,73.9,65.1,30.00,NNE,26,2.0,2.0,74,0.00,,,0.00,Wunderground v.1.15,2013-04-02 22:54:00,
2013-04-02 18:59:00,73.5,65.1,30.00,North,1,1.0,4.0,75,0.00,,,0.00,Wunderground v.1.15,2013-04-02 22:59:00,
2013-04-02 19:04:00,73.3,65.3,30.00,NE,54,0.0,6.0,76,0.00,,,0.00,Wunderground v.1.15,2013-04-02 23:04:00,
2013-04-02 19:09:00,73.2,65.6,30.00,ESE,106,0.0,6.0,77,0.00,,,0.00,Wunderground v.1.15,2013-04-02 23:09:00,
2013-04-02 19:14:00,73.0,65.4,30.00,NNE,31,0.0,3.0,77,0.00,,,0.00,Wunderground v.1.15,2013-04-02 23:14:00,
2013-04-02 19:19:00,73.0,65.7,30.00,NE,35,0.0,4.0,78,0.00,,,0.00,Wunderground v.1.15,2013-04-02 23:19:00,
2013-04-02 19:24:00,72.8,65.5,30.00,NE,52,0.0,0.0,78,0.00,,,0.00,Wunderground v.1.15,2013-04-02 23:24:00,
2013-04-02 19:29:00,72.7,65.4,30.00,NE,34,0.0,2.0,78,0.00,,,0.00,Wunderground v.1.15,2013-04-02 23:29:00,
2013-04-02 19:34:00,72.5,65.6,30.00,NE,34,0.0,0.0,79,0.00,,,0.00,Wunderground v.1.15,2013-04-02 23:34:00,
2013-04-02 19:39:00,72.3,65.4,30.00,NE,34,0.0,0.0,79,0.00,,,0.00,Wunderground v.1.15,2013-04-02 23:39:00,
2013-04-02 19:44:00,72.1,65.6,30.00,NNE,20,0.0,2.0,80,0.00,,,0.00,Wunderground v.1.15,2013-04-02 23:44:00,
2013-04-02 19:49:00,71.8,65.7,30.00,NNE,30,0.0,2.0,81,0.00,,,0.00,Wunderground v.1.15,2013-04-02 23:49:00,
2013-04-02 19:54:00,71.6,65.8,30.00,NE,55,0.0,1.0,82,0.00,,,0.00,Wunderground v.1.15,2013-04-02 23:54:00,
2013-04-02 19:59:00,71.6,66.2,30.00,NE,44,2.0,3.0,83,0.00,,,0.00,Wunderground v.1.15,2013-04-02 23:59:00,
2013-04-02 20:04:00,71.5,66.1,30.00,NE,48,0.0,2.0,83,0.00,,,0.00,Wunderground v.1.15,2013-04-03 00:04:00,
2013-04-02 20:09:00,71.3,66.2,30.00,NE,46,0.0,2.0,84,0.00,,,0.00,Wunderground v.1.15,2013-04-03 00:09:00,
2013-04-02 20:14:00,71.3,66.2,30.00,NE,46,0.0,1.0,84,0.00,,,0.00,Wunderground v.1.15,2013-04-03 00:14:00,
2013-04-02 20:19:00,71.1,66.0,30.00,NE,56,0.0,1.0,84,0.00,,,0.00,Wunderground v.1.15,2013-04-03 00:19:00,
2013-04-02 20:24:00,70.9,65.8,30.00,East,84,0.0,0.0,84,0.00,,,0.00,Wunderground v.1.15,2013-04-03 00:24:00,
2013-04-02 20:29:00,70.8,66.1,30.00,East,82,0.0,0.0,85,0.00,,,0.00,Wunderground v.1.15,2013-04-03 00:29:00,
2013-04-02 20:34:00,70.8,66.1,30.00,East,82,0.0,2.0,85,0.00,,,0.00,Wunderground v.1.15,2013-04-03 00:34:00,
2013-04-02 20:39:00,70.6,65.9,30.00,East,82,0.0,2.0,85,0.00,,,0.00,Wunderground v.1.15,2013-04-03 00:39:00,
2013-04-02 20:44:00,70.4,66.0,30.00,East,82,0.0,3.0,86,0.00,,,0.00,Wunderground v.1.15,2013-04-03 00:44:00,
2013-04-02 20:50:00,70.4,66.0,30.00,ESE,111,0.0,0.0,86,0.00,,,0.00,Wunderground v.1.15,2013-04-03 00:50:00,
2013-04-02 20:55:00,70.4,66.0,30.00,ESE,110,0.0,1.0,86,0.00,,,0.00,Wunderground v.1.15,2013-04-03 00:55:00,
2013-04-02 21:00:00,70.4,66.0,30.01,ESE,110,0.0,1.0,86,0.00,,,0.00,Wunderground v.1.15,2013-04-03 01:00:00,
2013-04-02 21:05:00,70.3,65.9,30.01,ESE,110,0.0,0.0,86,0.00,,,0.00,Wunderground v.1.15,2013-04-03 01:05:00,
2013-04-02 21:10:00,70.1,65.7,30.01,ESE,102,0.0,0.0,86,0.00,,,0.00,Wunderground v.1.15,2013-04-03 01:10:00,
2013-04-02 21:15:00,70.1,65.7,30.02,ESE,103,0.0,4.0,86,0.00,,,0.00,Wunderground v.1.15,2013-04-03 01:15:00,
2013-04-02 21:20:00,69.9,65.5,30.02,ESE,103,0.0,0.0,86,0.00,,,0.00,Wunderground v.1.15,2013-04-03 01:20:00,
2013-04-02 21:25:00,69.9,65.5,30.02,ESE,103,0.0,0.0,86,0.00,,,0.00,Wunderground v.1.15,2013-04-03 01:25:00,
2013-04-02 21:30:00,69.8,65.4,30.02,ESE,103,0.0,0.0,86,0.00,,,0.00,Wunderground v.1.15,2013-04-03 01:30:00,
2013-04-02 21:35:00,69.8,65.1,30.02,ESE,103,0.0,0.0,85,0.00,,,0.00,Wunderground v.1.15,2013-04-03 01:35:00,
2013-04-02 21:40:00,69.8,65.1,30.02,East,96,0.0,0.0,85,0.00,,,0.00,Wunderground v.1.15,2013-04-03 01:40:00,
2013-04-02 21:45:00,69.8,65.1,30.03,ESE,116,0.0,1.0,85,0.00,,,0.00,Wunderground v.1.15,2013-04-03 01:45:00,
2013-04-02 21:50:00,69.8,65.1,30.03,NE,56,0.0,2.0,85,0.00,,,0.00,Wunderground v.1.15,2013-04-03 01:50:00,
2013-04-02 21:55:00,69.8,65.1,30.03,East,91,0.0,2.0,85,0.00,,,0.00,Wunderground v.1.15,2013-04-03 01:55:00,
2013-04-02 22:00:00,69.8,65.1,30.03,ESE,116,0.0,0.0,85,0.00,,,0.00,Wunderground v.1.15,2013-04-03 02:00:00,
2013-04-02 22:05:00,69.8,65.1,30.03,East,101,0.0,0.0,85,0.00,,,0.00,Wunderground v.1.15,2013-04-03 02:05:00,
2013-04-02 22:10:00,69.8,65.1,30.03,East,96,0.0,3.0,85,0.00,,,0.00,Wunderground v.1.15,2013-04-03 02:10:00,
2013-04-02 22:15:00,69.8,65.1,30.03,East,96,0.0,3.0,85,0.00,,,0.00,Wunderground v.1.15,2013-04-03 02:15:00,
2013-04-02 22:21:00,69.8,65.1,30.03,East,89,0.0,0.0,85,0.00,,,0.00,Wunderground v.1.15,2013-04-03 02:21:00,
2013-04-02 22:25:00,69.8,64.7,30.03,East,88,0.0,1.0,84,0.00,,,0.00,Wunderground v.1.15,2013-04-03 02:25:00,
2013-04-02 22:30:00,69.6,64.9,30.03,East,88,0.0,4.0,85,0.00,,,0.00,Wunderground v.1.15,2013-04-03 02:30:00,
2013-04-02 22:36:00,69.6,64.5,30.03,East,96,0.0,4.0,84,0.00,,,0.00,Wunderground v.1.15,2013-04-03 02:36:00,
2013-04-02 22:41:00,69.6,64.5,30.03,East,96,0.0,0.0,84,0.00,,,0.00,Wunderground v.1.15,2013-04-03 02:41:00,
2013-04-02 22:46:00,69.6,64.9,30.03,East,96,0.0,2.0,85,0.00,,,0.00,Wunderground v.1.15,2013-04-03 02:46:00,
2013-04-02 22:51:00,69.4,64.7,30.03,East,79,0.0,0.0,85,0.00,,,0.00,Wunderground v.1.15,2013-04-03 02:51:00,
2013-04-02 22:56:00,69.4,64.7,30.03,East,79,0.0,1.0,85,0.00,,,0.00,Wunderground v.1.15,2013-04-03 02:56:00,
2013-04-02 23:01:00,69.4,64.7,30.03,ESE,102,0.0,0.0,85,0.00,,,0.00,Wunderground v.1.15,2013-04-03 03:01:00,
2013-04-02 23:06:00,69.4,64.7,30.03,East,99,0.0,3.0,85,0.00,,,0.00,Wunderground v.1.15,2013-04-03 03:06:00,
2013-04-02 23:11:00,69.4,65.0,30.03,ENE,72,0.0,0.0,86,0.00,,,0.00,Wunderground v.1.15,2013-04-03 03:11:00,
2013-04-02 23:16:00,69.4,65.0,30.03,ENE,75,0.0,2.0,86,0.00,,,0.00,Wunderground v.1.15,2013-04-03 03:16:00,
2013-04-02 23:21:00,69.3,64.9,30.03,ESE,104,0.0,5.0,86,0.00,,,0.00,Wunderground v.1.15,2013-04-03 03:21:00,
2013-04-02 23:26:00,69.3,64.6,30.03,SSE,147,0.0,5.0,85,0.00,,,0.00,Wunderground v.1.15,2013-04-03 03:26:00,
2013-04-02 23:31:00,69.4,64.4,30.03,ESE,105,0.0,1.0,84,0.00,,,0.00,Wunderground v.1.15,2013-04-03 03:31:00,
2013-04-02 23:36:00,69.4,64.4,30.03,East,97,1.0,3.0,84,0.00,,,0.00,Wunderground v.1.15,2013-04-03 03:36:00,
2013-04-02 23:41:00,69.4,64.0,30.03,East,98,1.0,4.0,83,0.00,,,0.00,Wunderground v.1.15,2013-04-03 03:41:00,
2013-04-02 23:46:00,69.4,64.0,30.03,East,81,0.0,4.0,83,0.00,,,0.00,Wunderground v.1.15,2013-04-03 03:46:00,
2013-04-02 23:52:00,69.4,64.0,30.03,East,81,0.0,0.0,83,0.00,,,0.00,Wunderground v.1.15,2013-04-03 03:52:00,
2013-04-02 23:57:00,69.3,63.9,30.03,ESE,102,0.0,3.0,83,0.00,,,0.00,Wunderground v.1.15,2013-04-03 03:57:00,